Wheaton, MN

4:17 AM CDT on August 26, 2016 (GMT -0500)
Wheaton Municipal

Weather History for KETH - October, 2012

Change the Weather History Date:

Wednesday, October 31, 2012

  Actual Average Record
Temperature  
Mean Temperature 42 °F -  
Max Temperature 57 °F 53 °F 81 °F (1950)
Min Temperature 26 °F 31 °F 12 °F (2002)
Degree Days  
Heating Degree Days 24    
Moisture  
Dew Point 33 °F    
Average Humidity 73    
Maximum Humidity 100    
Minimum Humidity 44    
Precipitation  
Precipitation 0.00 in - - ()
Sea Level Pressure  
Sea Level Pressure 30.02 in    
Wind  
Wind Speed 5 mph (SSE)    
Max Wind Speed 21 mph    
Max Gust Speed 26 mph    
Visibility 10 miles    
Events      
Averages and records for this station are not official NWS values.
T = Trace of Precipitation, MM = Missing Value Source: NWS Daily Summary

Daily Weather History Graph

Daily Weather History Graph

Search for Another Location

Airport or City:

Trip Planner

Search our weather history database for the weather conditions in past years. The results will help you decide how hot, cold, wet, or windy it might be!

Date:

Astronomy

Oct. 31, 2012 Rise Set
Actual Time 8:05 AM CDT 6:13 PM CDT
Civil Twilight 7:34 AM CDT 6:44 PM CDT
Nautical Twilight 6:59 AM CDT 7:19 PM CDT
Astronomical Twilight 6:24 AM CDT 7:53 PM CDT
Moon 7:19 PM CDT (10/31) 9:53 AM CDT (10/31)
Length of Visible Light 11h 09m
Length of Day
10h 07m
Full, 97% of the Moon is Illuminated
Oct 31
Full
Nov 6
Last Quarter
Nov 13
New
Nov 20
First Quarter
Nov 28
Full

Hourly Weather History & Observations

Time (CDT) Temp. Windchill Dew Point Humidity Pressure Visibility Wind Dir Wind Speed Gust Speed Precip Events Conditions
12:14 AM 33.8 °F 29.6 °F 30.2 °F 87% 30.09 in 10.0 mi ESE 4.6 mph - N/A   Mostly Cloudy
12:34 AM 33.8 °F 30.8 °F 28.4 °F 81% 30.09 in 10.0 mi ESE 3.5 mph - N/A   Scattered Clouds
12:54 AM 32.0 °F 27.5 °F 28.4 °F 87% 30.09 in 10.0 mi ESE 4.6 mph - N/A   Scattered Clouds
1:14 AM 30.2 °F 24.3 °F 26.6 °F 86% 30.09 in 10.0 mi East 5.8 mph - N/A   Scattered Clouds
1:34 AM 30.2 °F 25.4 °F 28.4 °F 93% 30.09 in 10.0 mi ESE 4.6 mph - N/A   Scattered Clouds
1:55 AM 28.4 °F 22.2 °F 26.6 °F 93% 30.08 in 10.0 mi ESE 5.8 mph - N/A   Scattered Clouds
2:14 AM 28.4 °F 22.2 °F 26.6 °F 93% 30.08 in 10.0 mi ESE 5.8 mph - N/A   Clear
2:34 AM 30.2 °F 24.3 °F 26.6 °F 86% 30.09 in 10.0 mi SE 5.8 mph - N/A   Clear
2:54 AM 30.2 °F 25.4 °F 26.6 °F 86% 30.09 in 10.0 mi SSE 4.6 mph - N/A   Scattered Clouds
3:14 AM 32.0 °F 28.7 °F 28.4 °F 87% 30.09 in 10.0 mi SE 3.5 mph - N/A   Scattered Clouds
3:34 AM 28.4 °F 23.3 °F 26.6 °F 93% 30.08 in 10.0 mi SE 4.6 mph - N/A   Mostly Cloudy
3:54 AM 28.4 °F - 26.6 °F 93% 30.09 in 10.0 mi Calm Calm - N/A   Clear
4:16 AM 28.4 °F 21.2 °F 26.6 °F 93% 30.09 in 10.0 mi East 6.9 mph - N/A   Scattered Clouds
4:34 AM 28.4 °F 21.2 °F 26.6 °F 93% 30.08 in 10.0 mi ESE 6.9 mph - N/A   Mostly Cloudy
4:54 AM 26.6 °F 19.1 °F 26.6 °F 100% 30.07 in 10.0 mi SE 6.9 mph - N/A   Scattered Clouds
5:14 AM 30.2 °F 23.4 °F 28.4 °F 93% 30.07 in 10.0 mi SE 6.9 mph - N/A   Clear
5:34 AM 30.2 °F 23.4 °F 28.4 °F 93% 30.06 in 10.0 mi SSE 6.9 mph - N/A   Clear
5:55 AM 32.0 °F 26.4 °F 28.4 °F 87% 30.06 in 10.0 mi SSE 5.8 mph - N/A   Clear
6:14 AM 32.0 °F 26.4 °F 28.4 °F 87% 30.06 in 10.0 mi SSE 5.8 mph - N/A   Clear
6:34 AM 30.2 °F 24.3 °F 26.6 °F 86% 30.06 in 10.0 mi SSE 5.8 mph - N/A   Clear
6:54 AM 28.4 °F 21.2 °F 26.6 °F 93% 30.06 in 10.0 mi SSE 6.9 mph - N/A   Scattered Clouds
7:14 AM 30.2 °F 23.4 °F 26.6 °F 86% 30.05 in 10.0 mi SSE 6.9 mph - N/A   Mostly Cloudy
7:35 AM 30.2 °F 24.3 °F 28.4 °F 93% 30.06 in 10.0 mi SSE 5.8 mph - N/A   Mostly Cloudy
7:55 AM 30.2 °F 25.4 °F 28.4 °F 93% 30.05 in 7.0 mi SSE 4.6 mph - N/A   Scattered Clouds
8:15 AM 30.2 °F 23.4 °F 28.4 °F 93% 30.04 in 7.0 mi SE 6.9 mph - N/A   Clear
8:34 AM 30.2 °F 24.3 °F 28.4 °F 93% 30.05 in 7.0 mi SSE 5.8 mph - N/A   Clear
8:54 AM 32.0 °F 26.4 °F 28.4 °F 87% 30.05 in 10.0 mi SE 5.8 mph - N/A   Clear
9:14 AM 33.8 °F 29.6 °F 30.2 °F 87% 30.04 in 10.0 mi SSE 4.6 mph - N/A   Clear
9:34 AM 35.6 °F 29.2 °F 30.2 °F 81% 30.04 in 10.0 mi SE 8.1 mph - N/A   Clear
9:55 AM 37.4 °F 32.1 °F 32.0 °F 81% 30.04 in 10.0 mi SE 6.9 mph - N/A   Clear
10:14 AM 39.2 °F 34.2 °F 32.0 °F 75% 30.04 in 10.0 mi SSE 6.9 mph - N/A   Clear
10:35 AM 41.0 °F 37.1 °F 33.8 °F 76% 30.03 in 10.0 mi South 5.8 mph - N/A   Clear
10:54 AM 42.8 °F 39.3 °F 33.8 °F 70% 30.03 in 10.0 mi South 5.8 mph - N/A   Clear
11:20 AM 46.4 °F 43.5 °F 33.8 °F 62% 30.02 in 10.0 mi South 5.8 mph - N/A   Clear
11:34 AM 46.4 °F 43.5 °F 33.8 °F 62% 30.02 in 10.0 mi South 5.8 mph - N/A   Clear
11:54 AM 48.2 °F - 33.8 °F 58% 30.02 in 10.0 mi SSE 3.5 mph - N/A   Clear
12:15 PM 50.0 °F - 33.8 °F 54% 30.02 in 10.0 mi SSE 3.5 mph - N/A   Clear
12:34 PM 51.8 °F - 33.8 °F 50% 30.01 in 10.0 mi SE 4.6 mph - N/A   Clear
12:54 PM 51.8 °F - 33.8 °F 50% 30.00 in 10.0 mi Calm Calm - N/A   Clear
1:34 PM 53.6 °F - 33.8 °F 47% 29.99 in 10.0 mi SW 3.5 mph - N/A   Clear
2:14 PM 55.4 °F - 35.6 °F 47% 29.97 in 10.0 mi SSW 8.1 mph - N/A   Clear
2:34 PM 55.4 °F - 35.6 °F 47% 29.97 in 10.0 mi WSW 4.6 mph - N/A   Clear
2:54 PM 55.4 °F - 35.6 °F 47% 29.96 in 10.0 mi Calm Calm - N/A   Clear
3:14 PM 57.2 °F - 35.6 °F 44% 29.96 in 10.0 mi Calm Calm - N/A   Clear
3:34 PM 55.4 °F - 35.6 °F 47% 29.95 in 10.0 mi Calm Calm - N/A   Clear
3:55 PM 57.2 °F - 35.6 °F 44% 29.96 in 10.0 mi Calm Calm - N/A   Clear
4:15 PM 57.2 °F - 35.6 °F 44% 29.96 in 10.0 mi Calm Calm - N/A   Clear
4:35 PM 57.2 °F - 37.4 °F 48% 29.96 in 10.0 mi Calm Calm - N/A   Clear
4:55 PM 57.2 °F - 35.6 °F 44% 29.95 in 10.0 mi Calm Calm - N/A   Clear
5:15 PM 57.2 °F - 37.4 °F 48% 29.95 in 10.0 mi Calm Calm - N/A   Clear
5:35 PM 57.2 °F - 37.4 °F 48% 29.95 in 10.0 mi Calm Calm - N/A   Clear
5:55 PM 55.4 °F - 37.4 °F 51% 29.95 in 10.0 mi Calm Calm - N/A   Scattered Clouds
6:35 PM 53.6 °F - 37.4 °F 54% 29.95 in 10.0 mi Calm Calm - N/A   Mostly Cloudy
6:56 PM 51.8 °F - 37.4 °F 58% 29.96 in 10.0 mi Calm Calm - N/A   Scattered Clouds
7:14 PM 51.8 °F - 37.4 °F 58% 29.96 in 10.0 mi Calm Calm - N/A   Scattered Clouds
7:34 PM 48.2 °F - 37.4 °F 66% 29.97 in 10.0 mi Calm Calm - N/A   Scattered Clouds
7:54 PM 48.2 °F - 37.4 °F 66% 29.97 in 10.0 mi WNW 5.8 mph - N/A   Scattered Clouds
8:14 PM 50.0 °F - 39.2 °F 66% 29.98 in 10.0 mi NW 8.1 mph - N/A   Mostly Cloudy
8:35 PM 48.2 °F - 39.2 °F 71% 29.98 in 7.0 mi WNW 5.8 mph - N/A   Mostly Cloudy
8:55 PM 48.2 °F - 39.2 °F 71% 29.98 in 10.0 mi NW 9.2 mph - N/A   Overcast
9:14 PM 50.0 °F - 41.0 °F 71% 29.99 in 10.0 mi NNW 13.8 mph - N/A   Overcast
9:34 PM 48.2 °F - 41.0 °F 76% 29.99 in 10.0 mi NNW 15.0 mph 19.6 mph N/A   Overcast
9:54 PM 48.2 °F - 39.2 °F 71% 30.00 in 10.0 mi NNW 13.8 mph 19.6 mph N/A   Overcast
10:14 PM 46.4 °F 39.5 °F 39.2 °F 76% 30.01 in 10.0 mi NNW 17.3 mph 25.3 mph N/A   Overcast
10:34 PM 46.4 °F 38.7 °F 39.2 °F 76% 30.01 in 10.0 mi NNW 20.7 mph 26.5 mph N/A   Overcast
10:55 PM 44.6 °F 36.4 °F 37.4 °F 76% 30.02 in 10.0 mi NNW 20.7 mph 26.5 mph N/A   Overcast
11:14 PM 42.8 °F 34.8 °F 37.4 °F 81% 30.03 in 10.0 mi NNW 17.3 mph 25.3 mph N/A   Overcast
11:34 PM 42.8 °F 38.6 °F 37.4 °F 81% 30.03 in 10.0 mi NW 6.9 mph 19.6 mph N/A   Overcast
11:55 PM 42.8 °F 35.4 °F 37.4 °F 81% 30.03 in 7.0 mi NNW 15.0 mph 21.9 mph N/A   Overcast